Temperature
11 11 10 10 10 10 10 9 9 9 9 8 8 8 8 8 8 8 8 8 8 8 7 7 7 7 7 7 7 7 7 7 6 6 6 6 6 6 6 6 6 6 6
11 11 10 10 10 10 9 9 9 9 8 8 8 8 8 8 8 8 8 8 8 8 8 7 7 7 7 6 6 7 6 6 6 6 6 6 6 5 5 5 5 5 5
11 11 10 10 10 10 9 9 8 8 8 8 8 8 8 8 8 8 8 8 8 8 8 8 7 7 7 7 6 6 6 6 6 6 5 5 5 5 5 5 5 5 5
11 10 10 10 10 10 9 9 9 8 8 8 8 8 8 8 8 8 8 8 7 7 8 8 8 7 7 7 7 6 6 6 6 5 5 5 5 5 4 4 4 4 4
11 10 10 10 10 9 9 9 9 8 8 8 8 8 8 8 8 8 8 8 8 8 7 8 8 8 7 7 7 7 6 6 5 5 5 5 5 4 4 4 4 4 4
11 10 10 10 9 9 9 9 8 8 8 8 8 8 8 8 8 8 8 8 8 8 7 7 7 7 8 7 7 7 6 6 5 5 5 5 4 4 4 4 4 4 4
11 10 10 10 9 9 9 9 8 8 8 8 8 8 8 8 8 8 8 7 8 8 8 7 7 7 7 7 7 7 7 6 5 5 4 4 4 4 4 3 3 3 3
11 10 10 10 10 9 9 9 8 8 8 8 8 8 8 7 8 8 8 8 7 8 8 7 7 7 7 7 7 7 7 6 6 5 4 4 4 3 3 3 3 3 3
11 11 10 10 10 9 9 9 9 8 8 8 8 8 8 9 8 8 8 8 8 8 7 7 7 7 7 7 7 7 6 6 6 5 4 4 4 3 3 3 3 3 3
11 11 10 10 9 9 9 9 9 9 8 8 8 8 8 8 8 8 8 8 8 8 7 8 7 7 7 7 7 6 6 6 6 5 5 4 4 3 3 3 2 2 2
12 11 10 10 10 9 9 9 9 9 8 8 8 8 8 8 8 7 8 7 8 8 8 8 7 7 7 7 6 6 6 6 5 5 5 4 4 3 3 2 2 2 2
12 11 11 10 10 10 9 9 9 9 9 8 8 8 8 8 8 8 7 7 7 8 8 8 7 7 7 6 6 6 6 5 5 5 4 4 4 3 3 2 2 2 1
12 12 11 10 10 10 10 9 9 9 9 9 8 8 8 8 8 8 7 7 7 7 8 8 7 7 7 6 6 6 5 5 5 4 4 4 3 3 3 2 2 1 1
13 13 12 11 10 10 10 9 9 9 9 9 8 8 8 8 8 8 8 7 7 7 7 7 7 7 7 6 6 5 5 4 4 4 3 3 3 2 2 2 1 1 0
12 12 12 11 10 10 10 9 9 9 9 9 8 8 8 8 8 8 8 7 7 6 6 6 7 7 6 6 5 5 4 4 4 3 3 3 2 2 1 1 1 0 -0
12 11 11 11 10 10 10 9 9 9 9 9 8 8 8 8 8 8 8 7 7 6 6 6 6 6 6 5 5 4 4 3 3 3 2 2 2 1 1 0 0 -0 -1
11 11 11 11 10 10 10 9 9 9 9 9 8 8 8 8 8 8 8 7 7 7 6 6 5 5 5 5 4 4 3 3 2 2 2 1 1 1 0 -0 -1 -1 -2
11 11 10 10 10 10 10 9 9 9 9 9 9 8 8 8 8 8 7 7 7 6 6 5 5 5 4 4 3 3 3 2 2 2 1 1 1 0 -0 -1 -1 -2 -2
11 10 10 10 10 10 10 9 9 9 9 9 9 9 8 8 8 8 7 7 7 6 6 5 4 4 4 4 3 3 2 2 1 1 1 0 0 -0 -1 -1 -2 -2 -3
11 10 10 10 10 10 9 9 9 9 9 9 9 8 8 8 8 7 7 7 6 6 5 5 4 4 3 3 2 2 2 1 1 0 0 -0 -1 -1 -1 -2 -2 -3 -3
10 10 10 10 10 10 9 9 9 9 9 9 8 8 8 8 8 7 7 6 6 5 5 4 4 3 3 2 2 1 1 0 -0 -0 -1 -1 -1 -2 -2 -3 -3 -3 -4
10 10 10 10 9 9 9 9 9 9 9 8 8 8 8 8 7 7 6 6 5 5 4 4 3 3 2 2 1 1 0 -1 -1 -1 -2 -2 -2 -3 -3 -3 -4 -4 -5
10 10 10 9 9 9 9 9 9 8 8 8 8 8 8 7 7 6 6 5 5 4 4 3 3 2 2 1 0 -0 -1 -1 -2 -2 -3 -3 -3 -4 -4 -4 -4 -5 -5
10 9 9 9 9 9 9 9 8 8 8 8 7 7 7 7 6 6 6 5 5 4 4 3 2 2 1 0 -0 -1 -1 -2 -2 -3 -3 -4 -4 -4 -4 -5 -5 -5 -6
9 9 9 9 9 9 9 8 8 8 8 7 7 7 6 6 6 6 5 5 4 4 3 2 2 1 0 -0 -1 -1 -2 -3 -3 -4 -4 -5 -5 -5 -5 -5 -6 -6 -6
9 9 9 9 8 8 8 8 8 7 7 7 7 6 6 6 5 5 5 4 3 3 2 2 1 0 -0 -1 -1 -2 -3 -3 -4 -5 -5 -6 -6 -7 -7 -6 -6 -7 -7
Wind_Speed
10 10 9 9 9 8 8 7 6 6 5 5 4 3 2 2 2 3 4 6 6 6 6 7 7 8 8 8 9 9 9 10 10 11 11 12 12 12 12 13 13 13 14
11 10 9 9 9 9 8 7 7 6 5 4 3 3 2 2 2 2 3 5 6 6 6 6 7 7 7 8 8 8 8 9 10 10 11 11 11 12 12 13 13 13 14
13 11 9 9 9 9 9 7 7 6 4 4 4 3 2 2 2 3 3 3 4 7 7 6 6 6 7 7 7 7 8 8 9 10 10 11 11 12 12 13 13 14 14
15 12 9 9 10 10 9 7 6 6 5 4 3 3 3 3 2 3 3 3 3 3 5 6 5 6 6 6 7 7 7 8 8 9 10 10 11 12 12 13 13 14 14
16 14 10 10 12 10 9 7 7 6 5 5 3 3 2 3 3 4 4 4 4 3 3 4 4 5 5 6 6 7 7 7 8 9 9 10 11 12 13 13 14 14 15
18 15 11 12 13 9 9 9 8 6 5 5 4 3 2 2 3 4 4 5 4 4 2 2 1 2 3 4 5 6 7 7 8 9 9 10 11 12 13 13 14 15 15
19 16 12 13 12 11 11 11 9 9 6 5 4 4 3 3 4 4 5 5 5 5 4 3 2 1 1 1 3 5 7 8 8 9 10 11 12 13 14 14 15 16 16
20 17 15 13 13 11 12 12 11 8 6 6 5 4 4 4 5 5 5 5 5 5 5 4 3 3 2 2 1 3 6 8 9 10 10 11 13 14 14 15 15 16 17
21 20 18 15 14 13 12 13 13 12 8 8 7 5 4 3 3 5 6 6 6 5 5 5 5 4 4 3 3 2 5 7 9 10 11 12 13 14 15 15 16 17 18
21 21 20 18 16 14 14 14 14 12 10 8 7 6 4 2 3 3 5 6 6 6 6 5 6 6 5 5 4 3 4 7 9 10 12 13 14 15 16 16 17 18 19
20 21 21 19 17 15 16 15 14 14 11 10 8 6 6 4 5 4 4 4 5 6 6 6 6 6 6 6 5 4 5 7 9 10 12 13 14 16 17 17 18 19 19
16 20 20 19 18 16 16 16 15 16 13 12 10 8 7 5 6 6 6 5 5 5 6 6 6 7 7 7 7 5 6 7 9 11 12 13 15 16 17 18 19 19 20
16 20 20 19 18 17 17 16 15 15 15 14 12 10 9 8 6 6 6 5 5 4 5 6 7 7 7 7 7 7 8 8 10 11 12 14 15 16 18 19 20 20 21
17 20 21 20 19 19 17 16 14 15 14 14 13 12 9 8 7 7 6 5 5 5 6 6 5 7 8 8 6 8 8 9 10 12 13 14 15 17 18 19 20 21 21
16 19 20 20 19 18 18 16 13 15 14 14 13 13 10 8 8 7 6 6 6 5 6 6 5 6 7 8 7 8 9 9 11 13 14 15 16 17 19 20 21 21 22
17 18 19 19 19 18 17 16 14 14 14 13 11 12 11 8 7 7 7 7 7 7 6 4 4 4 6 7 8 9 10 11 13 14 15 16 17 18 19 20 20 21 22
18 18 19 19 19 18 18 16 16 15 15 14 13 13 13 11 8 7 7 6 7 7 8 5 4 4 6 7 7 9 10 11 11 13 15 17 18 18 19 19 20 21 22
18 18 18 18 18 18 17 17 17 16 16 15 15 13 13 10 11 8 7 8 7 8 7 7 5 5 6 7 7 8 8 10 11 13 15 17 18 18 19 19 20 21 21
17 17 17 17 17 17 17 17 16 16 16 16 15 14 13 12 12 9 9 8 7 6 7 6 5 4 4 5 6 7 9 9 10 12 14 15 16 17 18 19 20 20 21
17 17 17 17 16 16 16 15 15 15 14 14 13 13 13 13 13 11 9 10 8 7 6 5 5 5 5 5 5 6 7 7 8 9 11 13 15 16 17 18 18 19 19
15 15 15 15 15 14 13 15 14 14 14 13 12 12 11 12 12 11 9 9 8 7 6 5 5 5 5 5 5 5 6 7 8 7 8 9 10 11 13 14 15 17 19
14 14 15 15 14 11 14 17 15 13 12 12 12 11 10 11 11 13 12 11 11 9 8 6 5 6 7 6 5 5 6 7 7 5 7 9 9 10 10 12 15 18 19
14 14 14 14 14 14 16 18 16 13 12 11 11 10 8 9 11 10 11 11 11 10 9 7 7 7 6 5 5 6 6 7 8 8 8 9 9 10 10 13 16 18 19
13 13 13 13 12 12 16 18 17 13 10 10 10 10 10 10 10 10 9 8 8 8 8 7 6 6 5 4 4 5 6 8 9 7 6 8 9 10 11 13 15 16 18
11 11 11 12 12 12 16 17 16 10 8 9 8 9 9 9 11 12 9 8 7 5 5 6 5 4 4 4 4 3 4 5 7 7 5 6 8 11 11 10 12 15 17
10 10 9 10 11 11 15 17 17 9 9 7 7 7 8 9 11 13 10 8 8 6 5 4 4 4 4 5 5 4 4 5 6 6 3 5 8 8 7 7 9 12 13
Wind_Direction
177 173 174 171 173 169 171 171 170 161 160 153 145 142 131 118 115 112 96 62 42 50 61 62 57 54 50 45 41 36 31 28 23 19 15 12 10 8 5 2 360 357 355
180 178 178 178 177 178 178 179 175 170 166 163 158 155 147 138 134 136 114 98 68 57 64 63 56 50 45 41 38 33 26 23 18 14 11 8 6 2 359 357 356 354 351
184 182 183 183 183 182 180 181 175 177 168 169 173 167 162 155 158 151 140 131 112 82 70 63 55 47 42 36 30 26 21 15 11 8 6 4 1 358 355 353 352 349 346
188 187 188 188 184 182 184 184 184 184 182 186 181 170 173 170 180 164 158 152 137 122 95 68 55 47 39 30 23 20 15 8 5 3 1 359 356 352 349 348 347 345 344
192 192 193 190 186 187 189 188 193 193 189 187 182 176 181 186 179 182 172 162 153 148 131 100 81 56 36 23 16 10 5 2 359 357 354 351 348 345 344 344 341 339 337
194 196 195 193 189 191 193 193 192 193 194 184 175 180 188 192 195 190 184 179 173 173 174 164 157 99 52 19 10 3 358 354 350 348 346 344 341 339 338 338 336 335 333
196 197 196 194 194 197 198 197 192 190 191 181 186 191 191 201 202 195 200 197 189 192 198 204 224 245 233 30 9 357 349 343 341 340 339 337 335 334 333 334 333 331 330
199 198 199 197 196 199 200 199 196 196 188 191 205 206 208 198 201 206 205 209 207 203 208 216 223 234 262 275 11 343 337 333 332 332 332 332 330 329 329 329 328 327 327
202 200 202 201 199 200 201 200 199 200 196 195 209 213 222 223 181 189 205 211 213 215 216 217 225 231 243 254 258 282 321 322 324 325 326 326 325 325 325 325 324 324 323
204 204 204 204 202 203 204 202 202 205 202 197 200 222 238 248 224 203 198 209 216 225 225 221 226 228 233 238 244 273 300 310 315 318 320 320 320 320 321 321 321 321 320
204 205 205 205 205 205 206 202 201 205 206 206 198 194 205 217 233 238 231 210 216 221 225 228 230 231 230 236 242 259 279 296 307 311 313 314 316 316 317 317 317 317 316
202 205 206 205 206 206 206 204 202 204 207 210 205 199 197 200 208 216 235 236 235 222 222 228 231 230 229 235 240 247 264 285 298 304 307 309 311 312 313 313 313 314 314
201 204 203 206 206 206 205 203 202 205 207 208 209 208 211 217 210 215 231 241 244 237 229 231 228 228 227 236 239 237 255 274 289 297 303 305 307 308 309 309 310 310 311
203 202 203 206 206 204 203 202 203 205 206 208 211 210 211 212 207 207 217 224 241 241 232 235 223 225 228 236 242 240 261 266 281 291 296 300 302 305 306 306 306 306 308
203 201 201 204 205 204 201 200 204 203 204 207 208 208 210 209 207 209 211 212 226 248 251 235 224 223 227 236 235 249 264 269 276 285 291 295 298 301 303 303 303 304 305
200 199 200 202 203 203 200 199 203 203 202 205 204 206 209 208 204 202 207 215 224 238 254 244 232 227 226 240 244 257 267 272 272 279 286 290 294 296 299 301 302 303 304
199 198 198 199 200 201 199 199 201 199 202 204 202 206 209 204 200 200 201 207 218 225 244 255 243 240 239 246 247 258 269 274 276 277 283 288 291 294 297 299 300 302 303
200 198 196 198 200 200 199 200 200 200 202 205 204 204 206 200 202 199 199 207 215 219 232 251 251 243 246 251 259 265 270 272 277 280 283 286 289 291 295 298 300 302 304
198 197 196 198 198 198 199 201 201 201 204 206 204 203 203 198 203 201 202 207 211 216 226 240 256 255 256 254 263 269 272 276 280 282 285 285 287 290 293 297 300 302 304
196 196 196 197 197 196 196 197 199 200 202 204 203 203 201 198 203 201 202 207 205 208 215 228 247 255 258 261 263 271 279 281 285 287 286 288 289 289 290 294 299 301 304
193 193 194 195 194 193 194 193 195 198 198 199 199 202 202 200 202 198 197 200 198 203 209 223 239 251 253 255 260 269 280 292 291 287 293 293 294 293 295 296 298 301 304
188 189 192 192 192 192 186 185 188 192 194 195 197 198 198 198 201 202 202 200 196 199 208 218 236 246 255 260 265 272 285 295 297 298 297 297 298 295 298 299 302 303 303
184 187 189 189 190 188 178 180 181 186 190 194 196 194 192 198 198 202 204 204 209 213 214 218 234 244 257 258 262 271 276 282 286 299 304 295 298 295 299 298 299 300 302
183 184 184 185 185 180 174 177 177 185 188 192 194 195 194 194 194 193 194 203 211 216 219 226 237 249 258 258 259 270 282 286 290 288 288 289 300 303 306 303 299 300 303
178 178 178 179 181 178 174 175 173 183 185 188 190 192 194 195 190 185 188 196 205 214 213 223 242 245 241 240 248 265 275 286 294 294 288 284 300 308 304 299 301 304 305
170 166 168 176 179 176 172 173 174 179 180 180 180 185 189 192 184 184 190 191 199 206 196 200 216 223 229 232 237 250 265 279 291 294 301 295 303 317 307 300 309 311 309
Height
1540 1542 1543 1545 1546 1548 1549 1550 1552 1553 1553 1554 1554 1554 1555 1555 1555 1555 1554 1553 1553 1553 1553 1552 1552 1551 1549 1548 1546 1545 1544 1542 1541 1539 1537 1536 1534 1532 1531 1529 1527 1525 1524
1538 1540 1542 1543 1545 1547 1548 1550 1551 1552 1553 1553 1554 1554 1554 1554 1554 1554 1554 1553 1553 1552 1552 1552 1551 1550 1549 1548 1546 1545 1543 1542 1540 1539 1537 1535 1533 1532 1530 1528 1526 1524 1522
1536 1538 1540 1542 1544 1545 1547 1548 1550 1551 1552 1552 1553 1553 1554 1554 1554 1554 1553 1553 1553 1552 1552 1551 1550 1550 1549 1547 1546 1544 1543 1541 1540 1538 1536 1534 1533 1531 1529 1527 1525 1523 1521
1534 1536 1538 1540 1542 1543 1545 1546 1548 1549 1550 1551 1552 1552 1552 1552 1553 1553 1552 1552 1552 1552 1551 1550 1550 1549 1548 1547 1545 1543 1542 1540 1539 1537 1535 1533 1531 1530 1528 1526 1523 1521 1519
1531 1533 1535 1537 1539 1541 1543 1544 1546 1548 1549 1550 1551 1551 1551 1551 1551 1551 1551 1551 1551 1550 1550 1549 1549 1548 1547 1545 1544 1542 1541 1539 1538 1536 1534 1532 1530 1528 1526 1524 1522 1519 1517
1527 1530 1532 1535 1537 1538 1540 1542 1544 1546 1547 1548 1549 1549 1550 1550 1550 1550 1550 1549 1549 1549 1549 1548 1548 1546 1545 1544 1543 1541 1540 1538 1536 1535 1533 1531 1529 1527 1524 1522 1520 1518 1515
1523 1526 1529 1531 1533 1535 1538 1540 1542 1543 1545 1546 1547 1548 1548 1548 1548 1548 1548 1548 1548 1547 1547 1547 1546 1545 1544 1542 1541 1540 1538 1536 1534 1533 1531 1529 1526 1524 1522 1520 1517 1515 1512
1518 1521 1524 1527 1529 1532 1534 1536 1538 1540 1542 1543 1545 1547 1548 1548 1545 1545 1546 1546 1546 1546 1545 1545 1544 1543 1542 1541 1539 1538 1536 1534 1532 1530 1528 1526 1524 1522 1520 1517 1514 1512 1509
1512 1516 1519 1523 1525 1528 1530 1532 1535 1537 1538 1540 1542 1544 1545 1545 1545 1544 1543 1543 1544 1543 1543 1543 1542 1541 1540 1539 1537 1535 1534 1532 1530 1528 1525 1523 1521 1519 1516 1514 1511 1508 1505
1506 1510 1514 1517 1520 1523 1526 1528 1531 1533 1535 1536 1538 1540 1541 1542 1543 1543 1542 1541 1541 1541 1541 1540 1539 1538 1537 1536 1534 1532 1531 1529 1527 1524 1522 1520 1518 1515 1513 1510 1507 1504 1501
1499 1503 1508 1511 1515 1518 1521 1524 1526 1529 1531 1533 1534 1535 1537 1538 1539 1540 1540 1539 1539 1538 1538 1537 1536 1535 1534 1533 1531 1529 1528 1525 1523 1521 1518 1516 1514 1511 1508 1506 1502 1499 1496
1492 1496 1501 1505 1508 1512 1515 1518 1521 1524 1526 1528 1530 1531 1533 1534 1535 1536 1537 1536 1536 1535 1534 1534 1533 1532 1531 1529 1528 1526 1524 1522 1520 1517 1515 1512 1509 1506 1503 1500 1497 1494 1491
1484 1488 1493 1497 1501 1505 1509 1513 1516 1518 1521 1523 1525 1527 1529 1530 1531 1532 1533 1533 1532 1531 1530 1530 1529 1528 1527 1526 1524 1522 1520 1518 1516 1513 1510 1508 1505 1502 1499 1495 1492 1489 1485
1477 1481 1485 1490 1494 1499 1503 1507 1510 1513 1516 1518 1520 1522 1524 1525 1526 1528 1529 1529 1528 1528 1527 1526 1525 1524 1523 1522 1520 1518 1516 1514 1511 1509 1506 1503 1500 1497 1493 1490 1486 1483 1479
1471 1475 1479 1483 1488 1492 1496 1500 1503 1507 1510 1512 1515 1517 1519 1520 1522 1523 1524 1525 1525 1524 1523 1522 1521 1520 1519 1517 1515 1513 1511 1509 1507 1504 1501 1498 1495 1491 1488 1484 1481 1477 1473
1464 1468 1472 1477 1481 1486 1490 1494 1497 1501 1504 1506 1509 1512 1514 1515 1516 1518 1519 1519 1520 1520 1518 1517 1516 1515 1514 1512 1511 1509 1507 1504 1502 1499 1496 1493 1489 1486 1482 1478 1475 1471 1467
1458 1462 1466 1470 1475 1479 1483 1487 1490 1494 1497 1501 1503 1506 1508 1510 1511 1512 1513 1514 1514 1514 1513 1512 1512 1510 1509 1508 1506 1504 1502 1499 1496 1494 1490 1487 1484 1480 1476 1472 1468 1465 1461
1451 1455 1460 1464 1468 1472 1476 1480 1484 1488 1491 1494 1497 1500 1502 1504 1505 1506 1507 1508 1509 1509 1509 1507 1506 1505 1504 1503 1501 1499 1496 1494 1491 1488 1485 1481 1478 1474 1470 1466 1462 1458 1454
1445 1449 1453 1458 1462 1466 1470 1474 1478 1482 1485 1488 1491 1494 1496 1498 1499 1500 1502 1503 1503 1504 1504 1503 1501 1500 1499 1498 1496 1494 1491 1489 1486 1483 1479 1476 1472 1468 1464 1460 1456 1452 1448
1439 1443 1447 1451 1456 1460 1464 1468 1472 1476 1479 1482 1485 1488 1490 1492 1494 1495 1496 1497 1498 1498 1498 1497 1496 1495 1494 1492 1491 1488 1486 1483 1480 1477 1473 1470 1466 1462 1458 1454 1450 1446 1442
1433 1437 1442 1446 1450 1454 1458 1462 1466 1470 1473 1476 1479 1482 1484 1486 1488 1489 1491 1491 1492 1492 1492 1491 1491 1490 1489 1487 1486 1483 1481 1478 1475 1472 1468 1464 1461 1457 1453 1449 1445 1440 1436
1428 1432 1436 1441 1445 1448 1453 1457 1461 1465 1468 1471 1473 1476 1478 1480 1482 1484 1485 1486 1487 1487 1487 1486 1485 1485 1484 1483 1481 1478 1476 1473 1469 1467 1463 1459 1456 1452 1448 1444 1439 1435 1431
1423 1427 1431 1436 1440 1444 1448 1452 1456 1460 1463 1465 1468 1470 1472 1474 1476 1478 1479 1480 1480 1481 1481 1481 1480 1480 1479 1478 1476 1473 1471 1468 1465 1462 1458 1453 1451 1447 1443 1439 1434 1430 1426
1418 1422 1427 1431 1435 1439 1444 1448 1452 1455 1457 1460 1463 1465 1467 1468 1470 1472 1473 1474 1474 1475 1475 1475 1475 1475 1474 1473 1471 1469 1466 1463 1460 1457 1454 1449 1445 1442 1438 1434 1430 1425 1421
1414 1418 1423 1427 1431 1435 1439 1443 1447 1450 1452 1455 1457 1459 1461 1463 1465 1466 1468 1468 1468 1469 1470 1470 1470 1469 1469 1467 1466 1464 1461 1458 1455 1452 1450 1446 1441 1437 1432 1429 1425 1421 1416
1410 1415 1419 1423 1427 1431 1435 1438 1442 1445 1447 1450 1452 1454 1456 1458 1459 1460 1462 1462 1463 1464 1465 1464 1464 1464 1463 1462 1461 1459 1457 1454 1451 1448 1445 1442 1437 1433 1427 1424 1421 1417 1412